Time,TemperatureF,DewpointF,PressureIn,WindDirection,WindDirectionDegrees,WindSpeedMPH,WindSpeedGustMPH,Humidity,HourlyPrecipIn,Conditions,Clouds,dailyrainin,SoftwareType,DateUTC
2013-06-23 00:00:00,79.0,74.0,30.17,SSE,160,12.0,14.0,84,-99.99,,,-99.99,,2013-06-23 04:00:00,
2013-06-23 00:31:00,79.0,74.0,30.17,SSE,160,12.0,14.0,84,-99.99,,,-99.99,,2013-06-23 04:31:00,
2013-06-23 00:42:00,79.0,74.0,30.17,SSE,160,12.0,14.0,84,-99.99,,,-99.99,,2013-06-23 04:42:00,
2013-06-23 00:51:00,79.0,74.0,30.17,SSE,160,12.0,14.0,84,-99.99,,,-99.99,,2013-06-23 04:51:00,
2013-06-23 02:00:00,78.0,74.0,30.16,SSE,160,10.0,12.0,86,-99.99,,,-99.99,,2013-06-23 06:00:00,
2013-06-23 02:32:00,78.0,74.0,30.16,SSE,160,10.0,12.0,86,-99.99,,,-99.99,,2013-06-23 06:32:00,
2013-06-23 02:43:00,78.0,74.0,30.16,SSE,160,10.0,12.0,86,-99.99,,,-99.99,,2013-06-23 06:43:00,
2013-06-23 02:52:00,78.0,74.0,30.16,SSE,160,10.0,12.0,86,-99.99,,,-99.99,,2013-06-23 06:52:00,
2013-06-23 03:00:00,78.0,75.0,30.15,SE,140,8.0,9.0,89,-99.99,,,-99.99,,2013-06-23 07:00:00,
2013-06-23 03:33:00,78.0,75.0,30.15,SE,140,8.0,9.0,89,-99.99,,,-99.99,,2013-06-23 07:33:00,
2013-06-23 03:42:00,78.0,75.0,30.15,SE,140,8.0,9.0,89,-99.99,,,-99.99,,2013-06-23 07:42:00,
2013-06-23 03:53:00,78.0,75.0,30.15,SE,140,8.0,9.0,89,-99.99,,,-99.99,,2013-06-23 07:53:00,
2013-06-23 04:00:00,78.0,74.0,30.15,SE,130,6.0,7.0,88,-99.99,,,-99.99,,2013-06-23 08:00:00,
2013-06-23 04:33:00,78.0,74.0,30.15,SE,130,6.0,7.0,88,-99.99,,,-99.99,,2013-06-23 08:33:00,
2013-06-23 04:42:00,78.0,74.0,30.15,SE,130,6.0,7.0,88,-99.99,,,-99.99,,2013-06-23 08:42:00,
2013-06-23 04:53:00,78.0,74.0,30.15,SE,130,6.0,7.0,88,-99.99,,,-99.99,,2013-06-23 08:53:00,
2013-06-23 05:00:00,78.0,73.0,30.15,ESE,110,3.0,5.0,85,-99.99,,,-99.99,,2013-06-23 09:00:00,
2013-06-23 05:34:00,78.0,73.0,30.15,ESE,110,3.0,5.0,85,-99.99,,,-99.99,,2013-06-23 09:34:00,
2013-06-23 05:43:00,78.0,73.0,30.15,ESE,110,3.0,5.0,85,-99.99,,,-99.99,,2013-06-23 09:43:00,
2013-06-23 05:53:00,78.0,73.0,30.15,ESE,110,3.0,5.0,85,-99.99,,,-99.99,,2013-06-23 09:53:00,
2013-06-23 06:00:00,78.0,74.0,30.15,ESE,110,5.0,6.0,86,-99.99,,,-99.99,,2013-06-23 10:00:00,
2013-06-23 06:34:00,78.0,74.0,30.15,ESE,110,5.0,6.0,86,-99.99,,,-99.99,,2013-06-23 10:34:00,
2013-06-23 06:43:00,78.0,74.0,30.15,ESE,110,5.0,6.0,86,-99.99,,,-99.99,,2013-06-23 10:43:00,
2013-06-23 06:52:00,78.0,74.0,30.15,ESE,110,5.0,6.0,86,-99.99,,,-99.99,,2013-06-23 10:52:00,
2013-06-23 07:00:00,78.0,75.0,30.17,East,100,7.0,8.0,90,-99.99,,,-99.99,,2013-06-23 11:00:00,
2013-06-23 07:33:00,78.0,75.0,30.17,East,100,7.0,8.0,90,-99.99,,,-99.99,,2013-06-23 11:33:00,
2013-06-23 07:43:00,78.0,75.0,30.17,East,100,7.0,8.0,90,-99.99,,,-99.99,,2013-06-23 11:43:00,
2013-06-23 07:53:00,78.0,75.0,30.17,East,100,7.0,8.0,90,-99.99,,,-99.99,,2013-06-23 11:53:00,
2013-06-23 09:00:00,79.0,75.0,30.19,East,80,7.0,8.0,88,-99.99,,,-99.99,,2013-06-23 13:00:00,
2013-06-23 09:33:00,79.0,75.0,30.19,East,80,7.0,8.0,88,-99.99,,,-99.99,,2013-06-23 13:33:00,
2013-06-23 09:43:00,79.0,75.0,30.19,East,80,7.0,8.0,88,-99.99,,,-99.99,,2013-06-23 13:43:00,
2013-06-23 09:53:00,79.0,75.0,30.19,East,80,7.0,8.0,88,-99.99,,,-99.99,,2013-06-23 13:53:00,
2013-06-23 10:00:00,81.0,75.0,30.20,NE,40,3.0,5.0,81,-99.99,,,-99.99,,2013-06-23 14:00:00,
2013-06-23 10:33:00,81.0,75.0,30.20,NE,40,3.0,5.0,81,-99.99,,,-99.99,,2013-06-23 14:33:00,
2013-06-23 10:44:00,81.0,75.0,30.20,NE,40,3.0,5.0,81,-99.99,,,-99.99,,2013-06-23 14:44:00,
2013-06-23 10:52:00,81.0,75.0,30.20,NE,40,3.0,5.0,81,-99.99,,,-99.99,,2013-06-23 14:52:00,
2013-06-23 11:34:00,80.0,74.0,30.21,East,90,7.0,8.0,82,-99.99,,,-99.99,,2013-06-23 15:34:00,
2013-06-23 11:43:00,80.0,74.0,30.21,East,90,7.0,8.0,82,-99.99,,,-99.99,,2013-06-23 15:43:00,
2013-06-23 11:52:00,80.0,74.0,30.21,East,90,7.0,8.0,82,-99.99,,,-99.99,,2013-06-23 15:52:00,
2013-06-23 12:34:00,80.0,74.0,30.21,ESE,110,10.0,10.0,83,-99.99,,,-99.99,,2013-06-23 16:34:00,
2013-06-23 12:42:00,80.0,74.0,30.21,ESE,110,10.0,10.0,83,-99.99,,,-99.99,,2013-06-23 16:42:00,
2013-06-23 12:52:00,80.0,74.0,30.21,ESE,110,10.0,10.0,83,-99.99,,,-99.99,,2013-06-23 16:52:00,
2013-06-23 13:00:00,81.0,75.0,30.20,ESE,110,6.0,7.0,82,-99.99,,,-99.99,,2013-06-23 17:00:00,
2013-06-23 13:33:00,81.0,75.0,30.20,ESE,110,6.0,7.0,82,-99.99,,,-99.99,,2013-06-23 17:33:00,
2013-06-23 13:43:00,81.0,75.0,30.20,ESE,110,6.0,7.0,82,-99.99,,,-99.99,,2013-06-23 17:43:00,
2013-06-23 13:52:00,81.0,75.0,30.20,ESE,110,6.0,7.0,82,-99.99,,,-99.99,,2013-06-23 17:52:00,
2013-06-23 15:00:00,79.0,76.0,30.17,ESE,120,13.0,14.0,89,-99.99,,,-99.99,,2013-06-23 19:00:00,
2013-06-23 15:32:00,79.0,76.0,30.17,ESE,120,13.0,14.0,89,-99.99,,,-99.99,,2013-06-23 19:32:00,
2013-06-23 15:43:00,79.0,76.0,30.17,ESE,120,13.0,14.0,89,-99.99,,,-99.99,,2013-06-23 19:43:00,
2013-06-23 15:53:00,79.0,76.0,30.17,ESE,120,13.0,14.0,89,-99.99,,,-99.99,,2013-06-23 19:53:00,
2013-06-23 16:00:00,80.0,74.0,30.16,East,100,13.0,14.0,82,-99.99,,,-99.99,,2013-06-23 20:00:00,
2013-06-23 16:33:00,80.0,74.0,30.16,East,100,13.0,14.0,82,-99.99,,,-99.99,,2013-06-23 20:33:00,
2013-06-23 16:42:00,80.0,74.0,30.16,East,100,13.0,14.0,82,-99.99,,,-99.99,,2013-06-23 20:42:00,
2013-06-23 16:52:00,80.0,74.0,30.16,East,100,13.0,14.0,82,-99.99,,,-99.99,,2013-06-23 20:52:00,
2013-06-23 18:00:00,80.0,75.0,30.15,SE,130,14.0,16.0,86,-99.99,,,-99.99,,2013-06-23 22:00:00,
2013-06-23 18:32:00,80.0,75.0,30.15,SE,130,14.0,16.0,86,-99.99,,,-99.99,,2013-06-23 22:32:00,
2013-06-23 18:43:00,80.0,75.0,30.15,SE,130,14.0,16.0,86,-99.99,,,-99.99,,2013-06-23 22:43:00,
2013-06-23 18:53:00,80.0,75.0,30.15,SE,130,14.0,16.0,86,-99.99,,,-99.99,,2013-06-23 22:53:00,
2013-06-23 19:00:00,79.0,76.0,30.16,SE,130,15.0,17.0,88,-99.99,,,-99.99,,2013-06-23 23:00:00,
2013-06-23 19:33:00,79.0,76.0,30.16,SE,130,15.0,17.0,88,-99.99,,,-99.99,,2013-06-23 23:33:00,
2013-06-23 19:44:00,79.0,76.0,30.16,SE,130,15.0,17.0,88,-99.99,,,-99.99,,2013-06-23 23:44:00,
2013-06-23 19:52:00,79.0,76.0,30.16,SE,130,15.0,17.0,88,-99.99,,,-99.99,,2013-06-23 23:52:00,
2013-06-23 20:00:00,80.0,75.0,30.16,SE,130,16.0,18.0,85,-99.99,,,-99.99,,2013-06-24 00:00:00,
2013-06-23 20:33:00,80.0,75.0,30.16,SE,130,16.0,18.0,85,-99.99,,,-99.99,,2013-06-24 00:33:00,
2013-06-23 20:42:00,80.0,75.0,30.16,SE,130,16.0,18.0,85,-99.99,,,-99.99,,2013-06-24 00:42:00,
2013-06-23 20:52:00,80.0,75.0,30.16,SE,130,16.0,18.0,85,-99.99,,,-99.99,,2013-06-24 00:52:00,
2013-06-23 21:00:00,80.0,76.0,30.17,SSE,150,15.0,17.0,89,-99.99,,,-99.99,,2013-06-24 01:00:00,
2013-06-23 21:32:00,80.0,76.0,30.17,SSE,150,15.0,17.0,89,-99.99,,,-99.99,,2013-06-24 01:32:00,
2013-06-23 21:42:00,80.0,76.0,30.17,SSE,150,15.0,17.0,89,-99.99,,,-99.99,,2013-06-24 01:42:00,
2013-06-23 21:52:00,80.0,76.0,30.17,SSE,150,15.0,17.0,89,-99.99,,,-99.99,,2013-06-24 01:52:00,
2013-06-23 22:00:00,80.0,74.0,30.19,South,170,18.0,21.0,82,-99.99,,,-99.99,,2013-06-24 02:00:00,
2013-06-23 22:33:00,80.0,74.0,30.19,South,170,18.0,21.0,82,-99.99,,,-99.99,,2013-06-24 02:33:00,
2013-06-23 22:42:00,80.0,74.0,30.19,South,170,18.0,21.0,82,-99.99,,,-99.99,,2013-06-24 02:42:00,
2013-06-23 22:52:00,80.0,74.0,30.19,South,170,18.0,21.0,82,-99.99,,,-99.99,,2013-06-24 02:52:00,
2013-06-23 23:00:00,79.0,77.0,30.19,SSE,160,14.0,16.0,91,-99.99,,,-99.99,,2013-06-24 03:00:00,
2013-06-23 23:42:00,79.0,77.0,30.19,SSE,160,14.0,16.0,91,-99.99,,,-99.99,,2013-06-24 03:42:00,
2013-06-23 23:53:00,79.0,77.0,30.19,SSE,160,14.0,16.0,91,-99.99,,,-99.99,,2013-06-24 03:53:00,